NOAA 16 DEB, 42347

Orbit data source: Space-Track

NOAA 16 DEB, 42347 is space debris in SSO originally from a launch on Thu, 21 Sep 2000 UTC launched from the Air Force Western Test Range (AFWTR). Debris objects in space refer to the collection of defunct objects orbiting the Earth. Examples of debris include non-operational satellites, rocket bodies, and fragments generated from explosions, collisions, or faulty payload assembly.

Loading next visibility...
Identifier
42347, 2000-055QP
Orbit
SSO
Country
Flag of USUS
Related business
Manufacturer
Unknown
Mission
Spacecraft
Bus & Motor
Unknown
Mass
Unknown
Launch date (UTC)
2000-09-21 (26 years ago)
Launch vehicle
Unknown
Launch site
Air Force Western Test Range (AFWTR)
Object type
Payload
Rocket body
Debris
Shape & HBR
Unknown shape, 0.1 m
Radar Cross Section
Medium (>0.1 m² and <1 m²)

Expand to show TLE details & history
Last TLE update: 2 days ago

TLE from 2 days ago
0 NOAA 16 DEB
1 42347U 00055QP  26235.85834309  .00004546  00000-0  10749-2 0  9990
2 42347  98.9607  79.1662 0032203 271.6176  88.1330 14.54349352552377
Epoch: 2026-08-23T20:36Z
TLE epoch observation values (Epoch: 2026-08-23T20:36:00.842Z)
Latitude
-0.00005°
Longitude
158.01433°
Altitude
713.761 km
Speed
7.499 km/s
True Right ascension
05h 16m 39s
True Declination
0° 00' 00"
Sunlit
Object was in daylight at epoch
Visualization orbit readout
Latitude
Unknown
Longitude
Unknown
Altitude
Unknown
Speed
Unknown
Apparent Right ascension
Unknown
Apparent Declination
Unknown
Sunlit
N/A
Visualization observer readout
Local Sidereal Time
02:29:15
Azimuth
Unknown
Elevation
Unknown
Doppler factor
Unknown
Orbital elements
Apogee altitude
731.425 km
Perigee altitude
685.782 km
Semi-major axis
7,086.741 km
Eccentricity
0.00322
Inclination
98.9607°
RAAN
79.1662°
Arg. of periapsis
271.6176°
True anomaly
88.50187°
Mean anomaly
88.133°
Eccentric anomaly
88.31743°
Mean motion
3.63809 °/min
Orbital period
98.95 mins
BSTAR
0.0010749
Loading maneuver chart data...
Computing Atmospheric mass density...
Loading historical data...
Loading historical data...
Loading historical data...
Loading historical data...
Loading historical data...
Loading historical data...
Loading historical data...

Documentation

Showing up to 5 results
|